Weather in Montego Bay

Jamaica     18°28′21″N   77°53′22″W
temp.,
°C
wind,
m/s
gust,
m/s
humid.,
%
clouds,
%
prec.,
mm/h
press.,
hPa
HPBL,
m
14 august, sun
sun1401:00+27e01765 0.8 1014349
04:00+27sse11775 0.3 1013257
07:00+26sse22775 1.1 1014190
10:00+29ne226668 0.1 1015536
13:00+28n53705 0.1 1014666
16:00+28n126915 0.1 1013504
19:00+28ne116925 0.3 1014435
22:00+27ese12724 0.0 1015269
15 august, mon
mon1501:00+26se22760 0.0 1013212
04:00+26e23803 0.0 1012465
07:00+26ese33810 0.0 1014290
10:00+28ne34720 0.0 1014643
13:00+28ne66735 0.0 1013615
16:00+29ne55706 0.1 1011777
19:00+28ene55793 0.1 1012428
22:00+27e34801 0.0 1014435
16 august, tue
tue1601:00+26se238332 0.0 1013326
04:00+26se118283 0.0 1012227
07:00+26ese227918 0.0 1013272
10:00+28ene33695 0.0 1014559
13:00+28ne66765 0.1 1013440
16:00+28ene667683 2.5 1012540
19:00+27e558071 7.9 1013304
22:00+27sse237799 2.2 1014238
17 august, wed
wed1701:00+27sse2276100 3.1 1013157
04:00+27s117499 0.0 1013159
07:00+27e227551 0.0 1014229
10:00+29ene236397 0.0 1016579
13:00+30ne5566100 0.0 1014700
16:00+29ene4574100 1.7 1013367
19:00+28ene5578100 2.3 1014430
22:00+27se4479100 0.1 1015214
18 august, thu
thu1801:00+27sse227887 0.1 1014138
04:00+26e45805 0.0 1014349
07:00+26e568199 0.0 1014445
10:00+29ene566916 0.0 1015778
13:00+29ne987232 0.0 1014663
16:00+29ene677024 0.3 1013770
19:00+28ene347316 0.3 1013395
22:00+27e457790 0.1 1014419